Time,TemperatureF,DewpointF,PressureIn,WindDirection,WindDirectionDegrees,WindSpeedMPH,WindSpeedGustMPH,Humidity,HourlyPrecipIn,Conditions,Clouds,dailyrainin,SoftwareType,DateUTC
2013-10-21 00:01:00,35.1,27.9,29.84,NW,315,15.0,18.0,75,0.00,,,0.00,meteohub,2013-10-21 05:01:00,
2013-10-21 00:06:00,35.1,27.7,29.83,NW,315,17.0,18.0,74,0.00,,,0.00,meteohub,2013-10-21 05:06:00,
2013-10-21 00:11:00,35.1,27.7,29.83,NW,315,17.0,18.0,74,0.00,,,0.00,meteohub,2013-10-21 05:11:00,
2013-10-21 00:16:00,35.1,27.3,29.83,NW,315,18.0,20.0,73,0.00,,,0.00,meteohub,2013-10-21 05:16:00,
2013-10-21 00:21:00,34.9,27.1,29.84,NW,315,19.0,20.0,73,0.00,,,0.00,meteohub,2013-10-21 05:21:00,
2013-10-21 00:26:00,34.9,27.1,29.83,NW,315,17.0,20.0,73,0.00,,,0.00,meteohub,2013-10-21 05:26:00,
2013-10-21 00:31:00,34.9,26.8,29.83,North,0,18.0,22.0,72,0.00,,,0.00,meteohub,2013-10-21 05:31:00,
2013-10-21 00:36:00,34.9,26.8,29.84,NW,315,15.0,22.0,72,0.00,,,0.00,meteohub,2013-10-21 05:36:00,
2013-10-21 00:41:00,34.7,26.2,29.84,WNW,293,15.0,22.0,71,0.00,,,0.00,meteohub,2013-10-21 05:41:00,
2013-10-21 00:46:00,34.7,26.2,29.84,NW,315,16.0,22.0,71,0.00,,,0.00,meteohub,2013-10-21 05:46:00,
2013-10-21 00:51:00,34.7,26.2,29.84,NW,315,14.0,22.0,71,0.00,,,0.00,meteohub,2013-10-21 05:51:00,
2013-10-21 00:56:00,34.7,27.0,29.84,NW,315,17.0,18.0,73,0.00,,,0.00,meteohub,2013-10-21 05:56:00,
2013-10-21 01:01:00,34.7,27.3,29.84,NW,315,18.0,18.0,74,0.00,,,0.00,meteohub,2013-10-21 06:01:00,
2013-10-21 01:06:00,34.5,27.5,29.85,West,270,14.0,18.0,75,0.00,,,0.00,meteohub,2013-10-21 06:06:00,
2013-10-21 01:11:00,34.5,27.5,29.84,NW,315,13.0,18.0,75,0.00,,,0.00,meteohub,2013-10-21 06:11:00,
2013-10-21 01:17:00,34.3,26.6,29.84,North,0,18.0,21.0,73,0.00,,,0.00,meteohub,2013-10-21 06:17:00,
2013-10-21 01:22:00,34.3,26.2,29.84,NW,315,18.0,21.0,72,0.00,,,0.00,meteohub,2013-10-21 06:22:00,
2013-10-21 01:27:00,34.0,25.9,29.84,NW,315,11.0,21.0,72,0.00,,,0.00,meteohub,2013-10-21 06:27:00,
2013-10-21 01:32:00,33.6,25.9,29.84,NW,315,11.0,21.0,73,0.00,,,0.00,meteohub,2013-10-21 06:32:00,
2013-10-21 01:37:00,33.1,25.7,29.85,NW,315,10.0,18.0,74,0.00,,,0.00,meteohub,2013-10-21 06:37:00,
2013-10-21 01:42:00,32.7,26.1,29.84,NW,315,11.0,15.0,76,0.00,,,0.00,meteohub,2013-10-21 06:42:00,
2013-10-21 01:47:00,32.5,26.1,29.84,NW,315,9.0,13.0,77,0.00,,,0.00,meteohub,2013-10-21 06:47:00,
2013-10-21 01:52:00,32.4,26.2,29.84,West,270,8.0,12.0,78,0.00,,,0.00,meteohub,2013-10-21 06:52:00,
2013-10-21 01:57:00,32.2,26.4,29.84,NW,315,11.0,11.0,79,0.00,,,0.00,meteohub,2013-10-21 06:57:00,
2013-10-21 02:02:00,32.0,26.6,29.85,NW,315,11.0,11.0,80,0.00,,,0.00,meteohub,2013-10-21 07:02:00,
2013-10-21 02:07:00,31.8,26.6,29.85,NW,315,11.0,13.0,81,0.00,,,0.00,meteohub,2013-10-21 07:07:00,
2013-10-21 02:12:00,31.6,26.4,29.85,West,270,12.0,13.0,81,0.00,,,0.00,meteohub,2013-10-21 07:12:00,
2013-10-21 02:17:00,31.5,26.2,29.85,West,270,10.0,13.0,81,0.00,,,0.00,meteohub,2013-10-21 07:17:00,
2013-10-21 02:23:00,31.5,26.2,29.85,NW,315,14.0,14.0,81,0.00,,,0.00,meteohub,2013-10-21 07:23:00,
2013-10-21 02:28:00,31.3,26.1,29.85,NW,315,11.0,15.0,81,0.00,,,0.00,meteohub,2013-10-21 07:28:00,
2013-10-21 02:33:00,31.1,25.9,29.85,NW,315,13.0,16.0,81,0.00,,,0.00,meteohub,2013-10-21 07:33:00,
2013-10-21 02:38:00,31.1,25.9,29.85,West,270,13.0,16.0,81,0.00,,,0.00,meteohub,2013-10-21 07:38:00,
2013-10-21 02:43:00,31.1,25.9,29.85,NW,315,12.0,16.0,81,0.00,,,0.00,meteohub,2013-10-21 07:43:00,
2013-10-21 02:48:00,31.3,26.1,29.86,NW,315,16.0,16.0,81,0.00,,,0.00,meteohub,2013-10-21 07:48:00,
2013-10-21 02:53:00,31.5,26.2,29.85,NW,315,15.0,17.0,81,0.00,,,0.00,meteohub,2013-10-21 07:53:00,
2013-10-21 02:58:00,31.6,26.4,29.86,NW,315,15.0,17.0,81,0.00,,,0.00,meteohub,2013-10-21 07:58:00,
2013-10-21 03:03:00,31.8,26.4,29.86,NW,315,15.0,17.0,80,0.00,,,0.00,meteohub,2013-10-21 08:03:00,
2013-10-21 03:08:00,31.8,26.1,29.86,West,270,11.0,17.0,79,0.00,,,0.00,meteohub,2013-10-21 08:08:00,
2013-10-21 03:13:00,32.0,25.9,29.85,West,270,10.0,17.0,78,0.00,,,0.00,meteohub,2013-10-21 08:13:00,
2013-10-21 03:18:00,32.0,25.9,29.86,NW,315,13.0,15.0,78,0.00,,,0.00,meteohub,2013-10-21 08:18:00,
2013-10-21 03:23:00,32.0,25.7,29.85,NW,315,12.0,15.0,77,0.00,,,0.00,meteohub,2013-10-21 08:23:00,
2013-10-21 03:29:00,32.0,25.3,29.85,WNW,293,10.0,15.0,76,0.00,,,0.00,meteohub,2013-10-21 08:29:00,
2013-10-21 03:34:00,32.0,25.3,29.86,NW,315,12.0,14.0,76,0.00,,,0.00,meteohub,2013-10-21 08:34:00,
2013-10-21 03:39:00,32.0,25.3,29.86,West,270,12.0,14.0,76,0.00,,,0.00,meteohub,2013-10-21 08:39:00,
2013-10-21 03:44:00,32.0,25.3,29.86,West,270,12.0,15.0,76,0.00,,,0.00,meteohub,2013-10-21 08:44:00,
2013-10-21 03:49:00,32.0,25.3,29.85,West,270,12.0,15.0,76,0.00,,,0.00,meteohub,2013-10-21 08:49:00,
2013-10-21 03:54:00,32.0,25.0,29.85,NW,315,13.0,15.0,75,0.00,,,0.00,meteohub,2013-10-21 08:54:00,
2013-10-21 03:59:00,31.8,25.2,29.86,West,270,11.0,15.0,76,0.00,,,0.00,meteohub,2013-10-21 08:59:00,
2013-10-21 04:04:00,31.6,24.6,29.86,West,270,12.0,14.0,75,0.00,,,0.00,meteohub,2013-10-21 09:04:00,
2013-10-21 04:09:00,31.6,24.6,29.86,NW,315,14.0,14.0,75,0.00,,,0.00,meteohub,2013-10-21 09:09:00,
2013-10-21 04:14:00,31.6,24.6,29.87,NW,315,14.0,15.0,75,0.00,,,0.00,meteohub,2013-10-21 09:14:00,
2013-10-21 04:19:00,31.6,24.6,29.86,West,270,13.0,15.0,75,0.00,,,0.00,meteohub,2013-10-21 09:19:00,
2013-10-21 04:24:00,31.6,24.6,29.86,West,270,12.0,15.0,75,0.00,,,0.00,meteohub,2013-10-21 09:24:00,
2013-10-21 04:29:00,31.5,24.4,29.85,West,270,10.0,15.0,75,0.00,,,0.00,meteohub,2013-10-21 09:29:00,
2013-10-21 04:34:00,31.1,24.1,29.86,West,270,11.0,14.0,75,0.00,,,0.00,meteohub,2013-10-21 09:34:00,
2013-10-21 04:39:00,31.1,24.1,29.86,West,270,10.0,12.0,75,0.00,,,0.00,meteohub,2013-10-21 09:39:00,
2013-10-21 04:44:00,31.1,24.1,29.86,West,270,10.0,15.0,75,0.00,,,0.00,meteohub,2013-10-21 09:44:00,
2013-10-21 04:50:00,30.9,24.3,29.86,West,270,14.0,15.0,76,0.00,,,0.00,meteohub,2013-10-21 09:50:00,
2013-10-21 04:55:00,30.9,24.3,29.86,West,270,11.0,15.0,76,0.00,,,0.00,meteohub,2013-10-21 09:55:00,
2013-10-21 05:00:00,30.7,24.1,29.86,West,270,9.0,15.0,76,0.00,,,0.00,meteohub,2013-10-21 10:00:00,
2013-10-21 05:05:00,30.6,24.3,29.86,West,270,8.0,15.0,77,0.00,,,0.00,meteohub,2013-10-21 10:05:00,
2013-10-21 05:10:00,30.7,24.4,29.86,West,270,8.0,11.0,77,0.00,,,0.00,meteohub,2013-10-21 10:10:00,
2013-10-21 05:15:00,30.9,24.6,29.86,West,270,14.0,14.0,77,0.00,,,0.00,meteohub,2013-10-21 10:15:00,
2013-10-21 05:20:00,31.1,24.4,29.86,NW,315,11.0,12.0,76,0.00,,,0.00,meteohub,2013-10-21 10:20:00,
2013-10-21 05:25:00,31.1,24.4,29.85,NW,315,11.0,15.0,76,0.00,,,0.00,meteohub,2013-10-21 10:25:00,
2013-10-21 05:30:00,30.9,23.9,29.86,NW,315,11.0,14.0,75,0.00,,,0.00,meteohub,2013-10-21 10:30:00,
2013-10-21 05:35:00,30.9,24.3,29.86,NW,315,9.0,14.0,76,0.00,,,0.00,meteohub,2013-10-21 10:35:00,
2013-10-21 05:40:00,30.7,24.1,29.86,NW,315,11.0,11.0,76,0.00,,,0.00,meteohub,2013-10-21 10:40:00,
2013-10-21 05:45:00,30.9,24.3,29.86,West,270,9.0,12.0,76,0.00,,,0.00,meteohub,2013-10-21 10:45:00,
2013-10-21 05:50:00,30.9,24.3,29.86,NW,315,9.0,12.0,76,0.00,,,0.00,meteohub,2013-10-21 10:50:00,
2013-10-21 05:55:00,30.9,24.3,29.86,NW,315,11.0,12.0,76,0.00,,,0.00,meteohub,2013-10-21 10:55:00,
2013-10-21 06:00:00,30.9,24.3,29.86,NW,315,10.0,11.0,76,0.00,,,0.00,meteohub,2013-10-21 11:00:00,
2013-10-21 06:06:00,30.9,24.3,29.86,NW,315,11.0,11.0,76,0.00,,,0.00,meteohub,2013-10-21 11:06:00,
2013-10-21 06:11:00,30.9,24.3,29.86,West,270,11.0,11.0,76,0.00,,,0.00,meteohub,2013-10-21 11:11:00,
2013-10-21 06:16:00,31.1,24.1,29.86,West,270,14.0,14.0,75,0.00,,,0.00,meteohub,2013-10-21 11:16:00,
2013-10-21 06:21:00,31.3,24.3,29.86,NW,315,9.0,14.0,75,0.00,,,0.00,meteohub,2013-10-21 11:21:00,
2013-10-21 06:26:00,31.3,24.3,29.87,NW,315,11.0,14.0,75,0.00,,,0.00,meteohub,2013-10-21 11:26:00,
2013-10-21 06:31:00,31.5,24.1,29.86,West,270,11.0,15.0,74,0.00,,,0.00,meteohub,2013-10-21 11:31:00,
2013-10-21 06:36:00,31.5,24.1,29.86,West,270,14.0,15.0,74,0.00,,,0.00,meteohub,2013-10-21 11:36:00,
2013-10-21 06:41:00,31.3,23.9,29.86,West,270,15.0,15.0,74,0.00,,,0.00,meteohub,2013-10-21 11:41:00,
2013-10-21 06:46:00,31.3,23.9,29.86,NW,315,11.0,15.0,74,0.00,,,0.00,meteohub,2013-10-21 11:46:00,
2013-10-21 06:51:00,31.1,23.7,29.86,NW,315,10.0,15.0,74,0.00,,,0.00,meteohub,2013-10-21 11:51:00,
2013-10-21 06:56:00,31.3,23.9,29.86,West,270,8.0,15.0,74,0.00,,,0.00,meteohub,2013-10-21 11:56:00,
2013-10-21 07:01:00,31.1,23.7,29.86,NW,315,8.0,14.0,74,0.00,,,0.00,meteohub,2013-10-21 12:01:00,
2013-10-21 07:06:00,31.1,24.1,29.86,West,270,10.0,14.0,75,0.00,,,0.00,meteohub,2013-10-21 12:06:00,
2013-10-21 07:11:00,31.1,24.4,29.86,NW,315,8.0,12.0,76,0.00,,,0.00,meteohub,2013-10-21 12:11:00,
2013-10-21 07:17:00,31.1,24.4,29.86,NW,315,11.0,12.0,76,0.00,,,0.00,meteohub,2013-10-21 12:17:00,
2013-10-21 07:22:00,31.5,25.2,29.85,NW,315,13.0,15.0,77,0.00,,,0.00,meteohub,2013-10-21 12:22:00,
2013-10-21 07:27:00,31.6,25.0,29.86,West,270,8.0,15.0,76,0.00,,,0.00,meteohub,2013-10-21 12:27:00,
2013-10-21 07:32:00,31.6,25.0,29.86,West,270,14.0,15.0,76,0.00,,,0.00,meteohub,2013-10-21 12:32:00,
2013-10-21 07:37:00,31.6,24.6,29.86,West,270,15.0,15.0,75,0.00,,,0.00,meteohub,2013-10-21 12:37:00,
2013-10-21 07:42:00,31.5,24.8,29.86,West,270,11.0,15.0,76,0.00,,,0.00,meteohub,2013-10-21 12:42:00,
2013-10-21 07:47:00,31.5,24.8,29.86,SW,225,16.0,16.0,76,0.00,,,0.00,meteohub,2013-10-21 12:47:00,
2013-10-21 07:52:00,31.6,25.0,29.86,West,270,11.0,16.0,76,0.00,,,0.00,meteohub,2013-10-21 12:52:00,
2013-10-21 07:57:00,31.6,25.0,29.86,West,270,12.0,16.0,76,0.00,,,0.00,meteohub,2013-10-21 12:57:00,
2013-10-21 08:02:00,31.6,24.6,29.87,NW,315,11.0,16.0,75,0.00,,,0.00,meteohub,2013-10-21 13:02:00,
2013-10-21 08:07:00,31.6,24.6,29.86,NW,315,14.0,17.0,75,0.00,,,0.00,meteohub,2013-10-21 13:07:00,
2013-10-21 08:12:00,31.6,24.6,29.86,NW,315,10.0,17.0,75,0.00,,,0.00,meteohub,2013-10-21 13:12:00,
2013-10-21 08:18:00,32.0,24.6,29.87,NW,315,12.0,15.0,74,0.00,,,0.00,meteohub,2013-10-21 13:18:00,
2013-10-21 08:23:00,32.0,24.6,29.86,NW,315,12.0,14.0,74,0.00,,,0.00,meteohub,2013-10-21 13:23:00,
2013-10-21 08:28:00,32.2,24.8,29.86,NW,315,10.0,14.0,74,0.00,,,0.00,meteohub,2013-10-21 13:28:00,
2013-10-21 08:33:00,32.2,24.8,29.86,NW,315,10.0,14.0,74,0.00,,,0.00,meteohub,2013-10-21 13:33:00,
2013-10-21 08:38:00,32.2,24.8,29.87,West,270,8.0,14.0,74,0.00,,,0.00,meteohub,2013-10-21 13:38:00,
2013-10-21 08:43:00,32.2,25.2,29.86,West,270,7.0,11.0,75,0.00,,,0.00,meteohub,2013-10-21 13:43:00,
2013-10-21 08:48:00,32.5,25.5,29.87,West,270,8.0,11.0,75,0.00,,,0.00,meteohub,2013-10-21 13:48:00,
2013-10-21 08:53:00,32.5,25.5,29.86,West,270,7.0,11.0,75,0.00,,,0.00,meteohub,2013-10-21 13:53:00,
2013-10-21 08:58:00,32.5,25.9,29.86,West,270,8.0,11.0,76,0.00,,,0.00,meteohub,2013-10-21 13:58:00,
2013-10-21 09:03:00,32.7,26.1,29.87,SW,225,5.0,10.0,76,0.00,,,0.00,meteohub,2013-10-21 14:03:00,
2013-10-21 09:08:00,33.1,26.6,29.87,West,270,11.0,11.0,77,0.00,,,0.00,meteohub,2013-10-21 14:08:00,
2013-10-21 09:13:00,32.9,26.2,29.86,West,270,11.0,12.0,76,0.00,,,0.00,meteohub,2013-10-21 14:13:00,
2013-10-21 09:18:00,33.1,26.1,29.86,NW,315,12.0,14.0,75,0.00,,,0.00,meteohub,2013-10-21 14:18:00,
2013-10-21 09:23:00,33.3,26.2,29.86,NW,315,15.0,15.0,75,0.00,,,0.00,meteohub,2013-10-21 14:23:00,
2013-10-21 09:29:00,33.4,25.7,29.85,NW,315,13.0,15.0,73,0.00,,,0.00,meteohub,2013-10-21 14:29:00,
2013-10-21 09:34:00,33.4,25.3,29.86,NW,315,15.0,17.0,72,0.00,,,0.00,meteohub,2013-10-21 14:34:00,
2013-10-21 09:39:00,33.3,24.6,29.86,WNW,293,18.0,18.0,70,0.00,,,0.00,meteohub,2013-10-21 14:39:00,
2013-10-21 09:44:00,33.4,24.4,29.86,NW,315,18.0,21.0,69,0.00,,,0.00,meteohub,2013-10-21 14:44:00,
2013-10-21 09:49:00,33.6,24.3,29.86,NW,315,17.0,21.0,68,0.00,,,0.00,meteohub,2013-10-21 14:49:00,
2013-10-21 09:54:00,33.8,24.1,29.86,West,270,18.0,21.0,67,0.00,,,0.00,meteohub,2013-10-21 14:54:00,
2013-10-21 09:59:00,33.8,24.1,29.86,NW,315,19.0,21.0,67,0.00,,,0.00,meteohub,2013-10-21 14:59:00,
2013-10-21 10:04:00,34.0,24.3,29.86,NW,315,20.0,21.0,67,0.00,,,0.00,meteohub,2013-10-21 15:04:00,
2013-10-21 10:09:00,34.0,24.6,29.86,West,270,21.0,21.0,68,0.00,,,0.00,meteohub,2013-10-21 15:09:00,
2013-10-21 10:14:00,34.0,24.3,29.86,West,270,19.0,21.0,67,0.00,,,0.00,meteohub,2013-10-21 15:14:00,
2013-10-21 10:19:00,34.2,24.4,29.86,NW,315,16.0,21.0,67,0.00,,,0.00,meteohub,2013-10-21 15:19:00,
2013-10-21 10:24:00,34.3,24.1,29.86,NW,315,16.0,21.0,66,0.00,,,0.00,meteohub,2013-10-21 15:24:00,
2013-10-21 10:30:00,34.7,24.1,29.86,West,270,19.0,21.0,65,0.00,,,0.00,meteohub,2013-10-21 15:30:00,
2013-10-21 10:35:00,34.5,23.2,29.86,NW,315,21.0,21.0,63,0.00,,,0.00,meteohub,2013-10-21 15:35:00,
2013-10-21 10:40:00,34.2,22.1,29.86,North,0,17.0,22.0,61,0.00,,,0.00,meteohub,2013-10-21 15:40:00,
2013-10-21 10:45:00,34.5,22.8,29.86,NW,315,16.0,23.0,62,0.00,,,0.00,meteohub,2013-10-21 15:45:00,
2013-10-21 10:50:00,35.1,23.7,29.86,NW,315,21.0,23.0,63,0.00,,,0.00,meteohub,2013-10-21 15:50:00,
2013-10-21 10:55:00,34.9,22.8,29.86,NW,315,20.0,23.0,61,0.00,,,0.00,meteohub,2013-10-21 15:55:00,
2013-10-21 11:00:00,34.9,22.5,29.86,NW,315,19.0,23.0,60,0.00,,,0.00,meteohub,2013-10-21 16:00:00,
2013-10-21 11:05:00,34.5,22.1,29.85,West,270,17.0,23.0,60,0.00,,,0.00,meteohub,2013-10-21 16:05:00,
2013-10-21 11:10:00,34.9,22.5,29.86,NW,315,17.0,23.0,60,0.00,,,0.00,meteohub,2013-10-21 16:10:00,
2013-10-21 11:15:00,35.2,22.3,29.85,NW,315,18.0,22.0,59,0.00,,,0.00,meteohub,2013-10-21 16:15:00,
2013-10-21 11:20:00,35.6,22.3,29.85,NW,315,13.0,23.0,58,0.00,,,0.00,meteohub,2013-10-21 16:20:00,
2013-10-21 11:25:00,35.8,22.5,29.85,NW,315,21.0,23.0,58,0.00,,,0.00,meteohub,2013-10-21 16:25:00,
2013-10-21 11:31:00,35.1,21.4,29.85,NW,315,23.0,25.0,57,0.00,,,0.00,meteohub,2013-10-21 16:31:00,
2013-10-21 11:36:00,34.9,20.8,29.85,NW,315,22.0,26.0,56,0.00,,,0.00,meteohub,2013-10-21 16:36:00,
2013-10-21 11:41:00,35.4,21.7,29.85,NW,315,23.0,26.0,57,0.00,,,0.00,meteohub,2013-10-21 16:41:00,
2013-10-21 11:46:00,35.4,21.7,29.85,West,270,23.0,25.0,57,0.00,,,0.00,meteohub,2013-10-21 16:46:00,
2013-10-21 11:51:00,35.2,20.7,29.85,NW,315,22.0,27.0,55,0.00,,,0.00,meteohub,2013-10-21 16:51:00,
2013-10-21 11:56:00,35.4,20.8,29.85,West,270,21.0,27.0,55,0.00,,,0.00,meteohub,2013-10-21 16:56:00,
2013-10-21 12:01:00,35.8,20.8,29.85,NW,315,18.0,27.0,54,0.00,,,0.00,meteohub,2013-10-21 17:01:00,
2013-10-21 12:06:00,35.4,20.5,29.85,NW,315,21.0,25.0,54,0.00,,,0.00,meteohub,2013-10-21 17:06:00,
2013-10-21 12:11:00,35.8,20.8,29.85,NW,315,23.0,26.0,54,0.00,,,0.00,meteohub,2013-10-21 17:11:00,
2013-10-21 12:16:00,35.6,20.7,29.85,NW,315,22.0,29.0,54,0.00,,,0.00,meteohub,2013-10-21 17:16:00,
2013-10-21 12:21:00,35.8,19.9,29.84,NW,315,27.0,29.0,52,0.00,,,0.00,meteohub,2013-10-21 17:21:00,
2013-10-21 12:26:00,36.3,20.8,29.84,NW,315,19.0,29.0,53,0.00,,,0.00,meteohub,2013-10-21 17:26:00,
2013-10-21 12:31:00,36.9,20.8,29.84,NW,315,20.0,27.0,52,0.00,,,0.00,meteohub,2013-10-21 17:31:00,
2013-10-21 12:36:00,36.9,21.7,29.84,NW,315,27.0,27.0,54,0.00,,,0.00,meteohub,2013-10-21 17:36:00,
2013-10-21 12:42:00,36.5,21.0,29.84,West,270,22.0,27.0,53,0.00,,,0.00,meteohub,2013-10-21 17:42:00,
2013-10-21 12:47:00,36.5,21.0,29.85,West,270,19.0,27.0,53,0.00,,,0.00,meteohub,2013-10-21 17:47:00,
2013-10-21 12:52:00,36.7,21.6,29.84,NW,315,21.0,27.0,54,0.00,,,0.00,meteohub,2013-10-21 17:52:00,
2013-10-21 12:57:00,36.5,21.0,29.84,NW,315,21.0,26.0,53,0.00,,,0.00,meteohub,2013-10-21 17:57:00,
2013-10-21 13:02:00,36.9,21.4,29.84,NW,315,21.0,26.0,53,0.00,,,0.00,meteohub,2013-10-21 18:02:00,
2013-10-21 13:07:00,37.0,21.0,29.84,NW,315,15.0,25.0,52,0.00,,,0.00,meteohub,2013-10-21 18:07:00,
2013-10-21 13:12:00,38.7,24.8,29.84,West,270,17.0,23.0,57,0.00,,,0.00,meteohub,2013-10-21 18:12:00,
2013-10-21 13:17:00,38.3,23.5,29.83,West,270,22.0,23.0,55,0.00,,,0.00,meteohub,2013-10-21 18:17:00,
2013-10-21 13:22:00,39.2,24.4,29.83,West,270,21.0,23.0,55,0.00,,,0.00,meteohub,2013-10-21 18:22:00,
2013-10-21 13:27:00,37.9,22.3,29.83,West,270,20.0,23.0,53,0.00,,,0.00,meteohub,2013-10-21 18:27:00,
2013-10-21 13:33:00,38.3,23.2,29.83,NW,315,21.0,25.0,54,0.00,,,0.00,meteohub,2013-10-21 18:33:00,
2013-10-21 13:38:00,37.9,23.2,29.83,NW,315,19.0,25.0,55,0.00,,,0.00,meteohub,2013-10-21 18:38:00,
2013-10-21 13:43:00,37.4,22.6,29.84,NW,315,22.0,25.0,55,0.00,,,0.00,meteohub,2013-10-21 18:43:00,
2013-10-21 13:48:00,37.9,23.7,29.83,WNW,293,20.0,22.0,56,0.00,,,0.00,meteohub,2013-10-21 18:48:00,
2013-10-21 13:53:00,37.6,23.4,29.83,NW,315,21.0,23.0,56,0.00,,,0.00,meteohub,2013-10-21 18:53:00,
2013-10-21 13:58:00,37.2,21.7,29.83,NW,315,21.0,23.0,53,0.00,,,0.00,meteohub,2013-10-21 18:58:00,
2013-10-21 14:03:00,37.8,23.9,29.82,NW,315,23.0,23.0,57,0.00,,,0.00,meteohub,2013-10-21 19:03:00,
2013-10-21 14:08:00,38.1,24.3,29.82,NW,315,22.0,23.0,57,0.00,,,0.00,meteohub,2013-10-21 19:08:00,
2013-10-21 14:13:00,38.3,24.4,29.82,NW,315,23.0,23.0,57,0.00,,,0.00,meteohub,2013-10-21 19:13:00,
2013-10-21 14:19:00,38.3,24.4,29.82,NW,315,15.0,26.0,57,0.00,,,0.00,meteohub,2013-10-21 19:19:00,
2013-10-21 14:24:00,39.2,24.8,29.82,NW,315,17.0,26.0,56,0.00,,,0.00,meteohub,2013-10-21 19:24:00,
2013-10-21 14:29:00,39.2,24.4,29.82,WNW,293,23.0,26.0,55,0.00,,,0.00,meteohub,2013-10-21 19:29:00,
2013-10-21 14:34:00,38.7,24.8,29.82,NW,315,17.0,23.0,57,0.00,,,0.00,meteohub,2013-10-21 19:34:00,
2013-10-21 14:39:00,38.8,25.3,29.81,NW,315,18.0,24.0,58,0.00,,,0.00,meteohub,2013-10-21 19:39:00,
2013-10-21 14:44:00,38.8,24.4,29.81,West,270,21.0,24.0,56,0.00,,,0.00,meteohub,2013-10-21 19:44:00,
2013-10-21 14:49:00,38.1,23.9,29.81,NW,315,17.0,24.0,56,0.00,,,0.00,meteohub,2013-10-21 19:49:00,
2013-10-21 14:54:00,38.5,24.6,29.81,NW,315,14.0,22.0,57,0.00,,,0.00,meteohub,2013-10-21 19:54:00,
2013-10-21 14:59:00,39.4,24.6,29.82,West,270,17.0,21.0,55,0.00,,,0.00,meteohub,2013-10-21 19:59:00,
2013-10-21 15:04:00,39.7,24.1,29.81,NW,315,16.0,22.0,53,0.00,,,0.00,meteohub,2013-10-21 20:04:00,
2013-10-21 15:09:00,39.9,24.3,29.81,NW,315,18.0,22.0,53,0.00,,,0.00,meteohub,2013-10-21 20:09:00,
2013-10-21 15:14:00,39.6,24.3,29.81,NW,315,17.0,22.0,54,0.00,,,0.00,meteohub,2013-10-21 20:14:00,
2013-10-21 15:20:00,39.6,24.8,29.80,NW,315,17.0,21.0,55,0.00,,,0.00,meteohub,2013-10-21 20:20:00,
2013-10-21 15:25:00,39.0,24.3,29.81,NW,315,17.0,21.0,55,0.00,,,0.00,meteohub,2013-10-21 20:25:00,
2013-10-21 15:30:00,38.5,23.7,29.81,NW,315,17.0,21.0,55,0.00,,,0.00,meteohub,2013-10-21 20:30:00,
2013-10-21 15:35:00,39.4,24.1,29.81,West,270,18.0,22.0,54,0.00,,,0.00,meteohub,2013-10-21 20:35:00,
2013-10-21 15:40:00,39.9,24.3,29.81,North,0,14.0,22.0,53,0.00,,,0.00,meteohub,2013-10-21 20:40:00,
2013-10-21 15:45:00,41.0,25.2,29.81,NW,315,21.0,22.0,53,0.00,,,0.00,meteohub,2013-10-21 20:45:00,
2013-10-21 15:50:00,41.0,24.8,29.81,West,270,16.0,23.0,52,0.00,,,0.00,meteohub,2013-10-21 20:50:00,
2013-10-21 15:55:00,40.8,24.6,29.81,NW,315,16.0,23.0,52,0.00,,,0.00,meteohub,2013-10-21 20:55:00,
2013-10-21 16:01:00,41.2,24.8,29.82,WNW,293,17.0,23.0,52,0.00,,,0.00,meteohub,2013-10-21 21:01:00,
2013-10-21 16:06:00,41.4,24.6,29.82,West,270,11.0,21.0,51,0.00,,,0.00,meteohub,2013-10-21 21:06:00,
2013-10-21 16:11:00,41.7,25.9,29.82,NW,315,21.0,21.0,53,0.00,,,0.00,meteohub,2013-10-21 21:11:00,
2013-10-21 16:16:00,41.5,25.2,29.82,NW,315,17.0,23.0,52,0.00,,,0.00,meteohub,2013-10-21 21:16:00,
2013-10-21 16:21:00,41.9,25.2,29.82,NW,315,16.0,23.0,51,0.00,,,0.00,meteohub,2013-10-21 21:21:00,
2013-10-21 16:26:00,41.9,25.2,29.81,NW,315,18.0,23.0,51,0.00,,,0.00,meteohub,2013-10-21 21:26:00,
2013-10-21 16:31:00,41.9,24.6,29.81,NW,315,18.0,22.0,50,0.00,,,0.00,meteohub,2013-10-21 21:31:00,
2013-10-21 16:37:00,41.9,24.6,29.81,NW,315,16.0,21.0,50,0.00,,,0.00,meteohub,2013-10-21 21:37:00,
2013-10-21 16:42:00,41.5,23.7,29.81,West,270,18.0,21.0,49,0.00,,,0.00,meteohub,2013-10-21 21:42:00,
2013-10-21 16:47:00,41.5,23.7,29.82,West,270,16.0,21.0,49,0.00,,,0.00,meteohub,2013-10-21 21:47:00,
2013-10-21 16:52:00,41.7,23.9,29.81,NW,315,16.0,21.0,49,0.00,,,0.00,meteohub,2013-10-21 21:52:00,
2013-10-21 16:57:00,42.3,25.0,29.81,NW,315,15.0,21.0,50,0.00,,,0.00,meteohub,2013-10-21 21:57:00,
2013-10-21 17:02:00,42.4,25.2,29.82,NW,315,15.0,18.0,50,0.00,,,0.00,meteohub,2013-10-21 22:02:00,
2013-10-21 17:07:00,42.3,25.0,29.81,NNW,338,15.0,17.0,50,0.00,,,0.00,meteohub,2013-10-21 22:07:00,
2013-10-21 17:12:00,42.1,24.8,29.81,NW,315,16.0,17.0,50,0.00,,,0.00,meteohub,2013-10-21 22:12:00,
2013-10-21 17:17:00,41.9,25.2,29.81,NW,315,15.0,73.0,51,0.00,,,0.00,meteohub,2013-10-21 22:17:00,
2013-10-21 17:22:00,41.9,25.2,29.82,NW,315,15.0,73.0,51,0.00,,,0.00,meteohub,2013-10-21 22:22:00,
2013-10-21 17:27:00,41.9,25.5,29.81,NW,315,13.0,73.0,52,0.00,,,0.00,meteohub,2013-10-21 22:27:00,
2013-10-21 17:32:00,41.5,25.2,29.82,NW,315,13.0,17.0,52,0.00,,,0.00,meteohub,2013-10-21 22:32:00,
2013-10-21 17:37:00,41.2,24.8,29.81,NNW,338,14.0,17.0,52,0.00,,,0.00,meteohub,2013-10-21 22:37:00,
2013-10-21 17:43:00,41.4,25.5,29.81,WNW,293,12.0,17.0,53,0.00,,,0.00,meteohub,2013-10-21 22:43:00,
2013-10-21 17:48:00,41.4,25.5,29.82,North,0,14.0,16.0,53,0.00,,,0.00,meteohub,2013-10-21 22:48:00,
2013-10-21 17:53:00,41.2,25.9,29.82,NW,315,10.0,15.0,54,0.00,,,0.00,meteohub,2013-10-21 22:53:00,
2013-10-21 17:58:00,40.8,25.9,29.82,NW,315,11.0,14.0,55,0.00,,,0.00,meteohub,2013-10-21 22:58:00,
2013-10-21 18:03:00,40.6,26.2,29.81,NW,315,13.0,14.0,56,0.00,,,0.00,meteohub,2013-10-21 23:03:00,
2013-10-21 18:08:00,40.5,26.1,29.81,NW,315,10.0,13.0,56,0.00,,,0.00,meteohub,2013-10-21 23:08:00,
2013-10-21 18:13:00,39.9,25.9,29.81,West,270,11.0,13.0,57,0.00,,,0.00,meteohub,2013-10-21 23:13:00,
2013-10-21 18:18:00,39.4,25.9,29.81,NW,315,10.0,13.0,58,0.00,,,0.00,meteohub,2013-10-21 23:18:00,
2013-10-21 18:23:00,38.5,25.9,29.81,NW,315,8.0,12.0,60,0.00,,,0.00,meteohub,2013-10-21 23:23:00,
2013-10-21 18:28:00,37.6,25.7,29.82,NW,315,6.0,11.0,62,0.00,,,0.00,meteohub,2013-10-21 23:28:00,
2013-10-21 18:33:00,37.0,23.7,29.81,NW,315,7.0,10.0,58,0.00,,,0.00,meteohub,2013-10-21 23:33:00,
2013-10-21 18:38:00,36.5,23.5,29.82,NW,315,6.0,8.0,59,0.00,,,0.00,meteohub,2013-10-21 23:38:00,
2013-10-21 18:43:00,36.0,23.4,29.82,NW,315,6.0,8.0,60,0.00,,,0.00,meteohub,2013-10-21 23:43:00,
2013-10-21 18:48:00,35.6,23.0,29.82,NW,315,5.0,8.0,60,0.00,,,0.00,meteohub,2013-10-21 23:48:00,
2013-10-21 18:53:00,35.4,23.7,29.82,NNW,338,6.0,6.0,62,0.00,,,0.00,meteohub,2013-10-21 23:53:00,
2013-10-21 18:59:00,35.2,23.5,29.82,North,0,4.0,7.0,62,0.00,,,0.00,meteohub,2013-10-21 23:59:00,
2013-10-21 19:04:00,34.9,23.5,29.82,North,0,6.0,7.0,63,0.00,,,0.00,meteohub,2013-10-22 00:04:00,
2013-10-21 19:09:00,34.7,23.7,29.82,North,0,5.0,7.0,64,0.00,,,0.00,meteohub,2013-10-22 00:09:00,
2013-10-21 19:14:00,34.2,23.2,29.82,North,0,5.0,7.0,64,0.00,,,0.00,meteohub,2013-10-22 00:14:00,
2013-10-21 19:19:00,33.8,23.0,29.82,NW,315,4.0,7.0,64,0.00,,,0.00,meteohub,2013-10-22 00:19:00,
2013-10-21 19:24:00,33.6,23.5,29.82,North,0,4.0,7.0,66,0.00,,,0.00,meteohub,2013-10-22 00:24:00,
2013-10-21 19:29:00,33.6,23.5,29.82,NW,315,4.0,5.0,66,0.00,,,0.00,meteohub,2013-10-22 00:29:00,
2013-10-21 19:34:00,33.4,23.4,29.82,NW,315,4.0,5.0,66,0.00,,,0.00,meteohub,2013-10-22 00:34:00,
2013-10-21 19:40:00,33.3,23.5,29.82,North,0,5.0,5.0,67,0.00,,,0.00,meteohub,2013-10-22 00:40:00,
2013-10-21 19:45:00,33.3,23.9,29.82,North,0,5.0,5.0,68,0.00,,,0.00,meteohub,2013-10-22 00:45:00,
2013-10-21 19:50:00,33.1,24.1,29.82,North,0,5.0,6.0,69,0.00,,,0.00,meteohub,2013-10-22 00:50:00,
2013-10-21 19:55:00,33.1,24.1,29.82,North,0,4.0,6.0,69,0.00,,,0.00,meteohub,2013-10-22 00:55:00,
2013-10-21 20:00:00,32.9,23.9,29.82,NNW,338,5.0,6.0,69,0.00,,,0.00,meteohub,2013-10-22 01:00:00,
2013-10-21 20:05:00,32.7,23.7,29.82,North,0,4.0,5.0,69,0.00,,,0.00,meteohub,2013-10-22 01:05:00,
2013-10-21 20:10:00,32.5,23.9,29.82,North,0,4.0,5.0,70,0.00,,,0.00,meteohub,2013-10-22 01:10:00,
2013-10-21 20:15:00,32.4,23.7,29.82,North,0,4.0,5.0,70,0.00,,,0.00,meteohub,2013-10-22 01:15:00,
2013-10-21 20:21:00,32.4,23.7,29.82,North,0,5.0,5.0,70,0.00,,,0.00,meteohub,2013-10-22 01:21:00,
2013-10-21 20:26:00,32.4,23.7,29.82,North,0,4.0,5.0,70,0.00,,,0.00,meteohub,2013-10-22 01:26:00,
2013-10-21 20:31:00,32.4,23.4,29.82,NNE,23,5.0,5.0,69,0.00,,,0.00,meteohub,2013-10-22 01:31:00,
2013-10-21 20:36:00,32.0,22.6,29.81,NE,45,4.0,5.0,68,0.00,,,0.00,meteohub,2013-10-22 01:36:00,
2013-10-21 20:41:00,31.6,22.6,29.81,NE,45,7.0,7.0,69,0.00,,,0.00,meteohub,2013-10-22 01:41:00,
2013-10-21 20:46:00,31.5,22.5,29.81,NE,45,6.0,7.0,69,0.00,,,0.00,meteohub,2013-10-22 01:46:00,
2013-10-21 20:51:00,31.3,22.3,29.81,NE,45,4.0,7.0,69,0.00,,,0.00,meteohub,2013-10-22 01:51:00,
2013-10-21 20:55:00,31.3,22.6,29.81,North,0,5.0,7.0,70,0.00,,,0.00,meteohub,2013-10-22 01:55:00,
2013-10-21 21:00:00,31.6,23.0,29.81,NE,45,4.0,6.0,70,0.00,,,0.00,meteohub,2013-10-22 02:00:00,
2013-10-21 21:05:00,31.6,23.0,29.81,NE,45,4.0,5.0,70,0.00,,,0.00,meteohub,2013-10-22 02:05:00,
2013-10-21 21:11:00,31.6,23.0,29.81,NE,45,4.0,5.0,70,0.00,,,0.00,meteohub,2013-10-22 02:11:00,
2013-10-21 21:16:00,31.8,23.2,29.81,NNE,23,4.0,4.0,70,0.00,,,0.00,meteohub,2013-10-22 02:16:00,
2013-10-21 21:21:00,32.0,23.0,29.81,NE,45,4.0,5.0,69,0.00,,,0.00,meteohub,2013-10-22 02:21:00,
2013-10-21 21:26:00,32.0,23.0,29.81,NE,45,4.0,5.0,69,0.00,,,0.00,meteohub,2013-10-22 02:26:00,
2013-10-21 21:31:00,32.0,22.6,29.81,NE,45,5.0,6.0,68,0.00,,,0.00,meteohub,2013-10-22 02:31:00,
2013-10-21 21:36:00,31.6,22.6,29.82,North,0,7.0,7.0,69,0.00,,,0.00,meteohub,2013-10-22 02:36:00,
2013-10-21 21:41:00,31.3,22.3,29.81,NE,45,6.0,7.0,69,0.00,,,0.00,meteohub,2013-10-22 02:41:00,
2013-10-21 21:46:00,30.7,22.1,29.82,NE,45,5.0,7.0,70,0.00,,,0.00,meteohub,2013-10-22 02:46:00,
2013-10-21 21:51:00,30.6,22.3,29.81,NE,45,5.0,7.0,71,0.00,,,0.00,meteohub,2013-10-22 02:51:00,
2013-10-21 21:56:00,30.6,22.3,29.82,North,0,6.0,6.0,71,0.00,,,0.00,meteohub,2013-10-22 02:56:00,
2013-10-21 22:01:00,30.6,22.3,29.82,NE,45,5.0,6.0,71,0.00,,,0.00,meteohub,2013-10-22 03:01:00,
2013-10-21 22:07:00,30.6,22.3,29.82,NE,45,5.0,6.0,71,0.00,,,0.00,meteohub,2013-10-22 03:07:00,
2013-10-21 22:12:00,30.4,22.1,29.82,NE,45,6.0,6.0,71,0.00,,,0.00,meteohub,2013-10-22 03:12:00,
2013-10-21 22:17:00,29.8,21.9,29.82,NE,45,7.0,7.0,72,0.00,,,0.00,meteohub,2013-10-22 03:17:00,
2013-10-21 22:22:00,29.5,21.6,29.83,NE,45,5.0,7.0,72,0.00,,,0.00,meteohub,2013-10-22 03:22:00,
2013-10-21 22:27:00,28.9,21.0,29.82,North,0,5.0,7.0,72,0.00,,,0.00,meteohub,2013-10-22 03:27:00,
2013-10-21 22:32:00,28.8,20.8,29.82,North,0,5.0,7.0,72,0.00,,,0.00,meteohub,2013-10-22 03:32:00,
2013-10-21 22:37:00,28.8,21.2,29.82,North,0,6.0,6.0,73,0.00,,,0.00,meteohub,2013-10-22 03:37:00,
2013-10-21 22:42:00,28.9,21.4,29.82,NE,45,5.0,6.0,73,0.00,,,0.00,meteohub,2013-10-22 03:42:00,
2013-10-21 22:47:00,28.9,21.4,29.82,NE,45,5.0,7.0,73,0.00,,,0.00,meteohub,2013-10-22 03:47:00,
2013-10-21 22:52:00,28.9,21.4,29.82,NE,45,4.0,7.0,73,0.00,,,0.00,meteohub,2013-10-22 03:52:00,
2013-10-21 22:57:00,28.9,21.4,29.82,NE,45,4.0,6.0,73,0.00,,,0.00,meteohub,2013-10-22 03:57:00,
2013-10-21 23:01:00,28.9,21.4,29.82,North,0,4.0,6.0,73,0.00,,,0.00,meteohub,2013-10-22 04:01:00,
2013-10-21 23:02:00,28.9,21.4,29.82,North,0,4.0,6.0,73,0.00,,,0.00,meteohub,2013-10-22 04:02:00,
2013-10-21 23:06:00,28.9,21.7,29.82,NE,45,4.0,5.0,74,0.00,,,0.00,meteohub,2013-10-22 04:06:00,
2013-10-21 23:11:00,29.1,21.9,29.83,North,0,3.0,4.0,74,0.00,,,0.00,meteohub,2013-10-22 04:11:00,
2013-10-21 23:16:00,29.7,22.5,29.82,North,0,3.0,4.0,74,0.00,,,0.00,meteohub,2013-10-22 04:16:00,
2013-10-21 23:21:00,29.8,22.6,29.82,NNE,23,4.0,4.0,74,0.00,,,0.00,meteohub,2013-10-22 04:21:00,
2013-10-21 23:26:00,30.0,22.8,29.82,NNE,23,4.0,4.0,74,0.00,,,0.00,meteohub,2013-10-22 04:26:00,
2013-10-21 23:31:00,29.8,22.6,29.82,North,0,4.0,4.0,74,0.00,,,0.00,meteohub,2013-10-22 04:31:00,
2013-10-21 23:36:00,29.8,22.6,29.83,NNE,23,3.0,4.0,74,0.00,,,0.00,meteohub,2013-10-22 04:36:00,
2013-10-21 23:41:00,29.5,22.3,29.82,North,0,4.0,4.0,74,0.00,,,0.00,meteohub,2013-10-22 04:41:00,
2013-10-21 23:47:00,29.5,22.3,29.83,North,0,4.0,4.0,74,0.00,,,0.00,meteohub,2013-10-22 04:47:00,
2013-10-21 23:52:00,29.7,22.5,29.83,North,0,4.0,4.0,74,0.00,,,0.00,meteohub,2013-10-22 04:52:00,
2013-10-21 23:57:00,29.8,22.6,29.83,North,0,5.0,5.0,74,0.00,,,0.00,meteohub,2013-10-22 04:57:00,